| time (UTC) | temp C | wind direction | speed KPH | gust KPH | rain 1hr cm | rain 24hr cm | rain mn cm | humidity % | barometer mb |
| 20260507172100 | 17 | 110 | 0.0 | 0.0 | 0.00 | 0.00 | 0.00 | 51 | 1020.5 |
| 20260507171606 | 17 | 110 | 0.0 | 0.0 | 0.00 | 0.00 | 0.00 | 51 | 1020.6 |
| 20260507171100 | 17 | 110 | 0.0 | 9.7 | 0.00 | 0.00 | 0.00 | 50 | 1020.7 |
| 20260507170557 | 17 | 117 | 0.0 | 9.7 | 0.00 | 0.00 | 0.00 | 51 | 1020.7 |
| 20260507170103 | 16 | 118 | 0.0 | 6.4 | 0.00 | 0.00 | 0.00 | 51 | 1020.8 |
| 20260507165557 | 17 | 118 | 1.6 | 6.4 | 0.00 | 0.00 | 0.00 | 54 | 1020.9 |
| 20260507165056 | 16 | 118 | 0.0 | 4.8 | 0.00 | 0.00 | 0.00 | 53 | 1021.0 |
| 20260507164601 | 16 | 118 | 0.0 | 0.0 | 0.00 | 0.00 | 0.00 | 53 | 1021.0 |
| 20260507164056 | 15 | 118 | 0.0 | 0.0 | 0.00 | 0.00 | 0.00 | 54 | 1021.1 |
| 20260507163554 | 15 | 118 | 0.0 | 0.0 | 0.00 | 0.00 | 0.00 | 54 | 1021.1 |
| 20260507163053 | 15 | 118 | 0.0 | 0.0 | 0.00 | 0.00 | 0.00 | 55 | 1021.2 |
| 20260507162553 | 15 | 118 | 0.0 | 11.3 | 0.00 | 0.00 | 0.00 | 53 | 1021.3 |
| 20260507162053 | 15 | 118 | 3.2 | 11.3 | 0.00 | 0.00 | 0.00 | 54 | 1021.4 |
| 20260507161554 | 15 | 118 | 0.0 | 4.8 | 0.00 | 0.00 | 0.00 | 55 | 1021.4 |
| 20260507161051 | 15 | 118 | 0.0 | 0.0 | 0.00 | 0.00 | 0.00 | 56 | 1021.4 |
| 20260507160551 | 15 | 118 | 0.0 | 1.6 | 0.00 | 0.00 | 0.00 | 54 | 1021.5 |
| 20260507160054 | 15 | 118 | 0.0 | 1.6 | 0.00 | 0.00 | 0.00 | 54 | 1021.5 |
| 20260507155550 | 14 | 118 | 0.0 | 1.6 | 0.00 | 0.00 | 0.00 | 55 | 1021.6 |
| 20260507155050 | 15 | 119 | 0.0 | 0.0 | 0.00 | 0.00 | 0.00 | 55 | 1021.6 |
| 20260507154553 | 14 | 119 | 0.0 | 1.6 | 0.00 | 0.00 | 0.00 | 56 | 1021.6 |
| 20260507154048 | 14 | 119 | 0.0 | 1.6 | 0.00 | 0.00 | 0.00 | 55 | 1021.7 |
| 20260507153549 | 14 | 119 | 0.0 | 4.8 | 0.00 | 0.00 | 0.00 | 55 | 1021.7 |
| 20260507153049 | 13 | 124 | 1.6 | 4.8 | 0.00 | 0.00 | 0.00 | 55 | 1021.7 |
| 20260507152548 | 13 | 124 | 0.0 | 6.4 | 0.00 | 0.00 | 0.00 | 55 | 1021.8 |
| 20260507152048 | 13 | 123 | 1.6 | 9.7 | 0.00 | 0.00 | 0.00 | 56 | 1021.9 |
| 20260507151547 | 13 | 294 | 3.2 | 11.3 | 0.00 | 0.00 | 0.00 | 56 | 1021.9 |
| 20260507151045 | 13 | 247 | 3.2 | 11.3 | 0.00 | 0.00 | 0.00 | 56 | 1022.0 |
| 20260507150543 | 13 | 270 | 3.2 | 8.0 | 0.00 | 0.00 | 0.00 | 57 | 1022.1 |
| 20260507150043 | 12 | 283 | 1.6 | 9.7 | 0.00 | 0.00 | 0.00 | 57 | 1022.1 |
| 20260507145540 | 12 | 259 | 3.2 | 8.0 | 0.00 | 0.00 | 0.00 | 57 | 1022.1 |
| 20260507145038 | 12 | 263 | 3.2 | 14.5 | 0.00 | 0.00 | 0.00 | 59 | 1022.2 |
| 20260507144538 | 12 | 269 | 3.2 | 14.5 | 0.00 | 0.00 | 0.00 | 58 | 1022.3 |
| 20260507144039 | 12 | 269 | 1.6 | 11.3 | 0.00 | 0.00 | 0.00 | 58 | 1022.4 |
| 20260507143539 | 12 | 266 | 3.2 | 11.3 | 0.00 | 0.00 | 0.00 | 59 | 1022.4 |
| 20260507143038 | 12 | 304 | 3.2 | 12.9 | 0.00 | 0.00 | 0.00 | 59 | 1022.5 |
| 20260507142538 | 12 | 304 | 4.8 | 12.9 | 0.00 | 0.00 | 0.00 | 60 | 1022.4 |
| 20260507142136 | 12 | 304 | 0.0 | 12.9 | 0.00 | 0.00 | 0.00 | 60 | 1022.4 |
| 20260507141539 | 11 | 304 | 0.0 | 16.1 | 0.00 | 0.00 | 0.00 | 60 | 1022.5 |
| 20260507141036 | 11 | 296 | 3.2 | 14.5 | 0.00 | 0.00 | 0.00 | 61 | 1022.4 |
| 20260507140535 | 11 | 288 | 1.6 | 11.3 | 0.00 | 0.00 | 0.00 | 61 | 1022.4 |
| 20260507140036 | 11 | 287 | 1.6 | 11.3 | 0.00 | 0.00 | 0.00 | 61 | 1022.4 |
| 20260507135535 | 11 | 284 | 0.0 | 17.7 | 0.00 | 0.00 | 0.00 | 61 | 1022.4 |
| 20260507135035 | 11 | 284 | 4.8 | 17.7 | 0.00 | 0.00 | 0.00 | 62 | 1022.4 |
| 20260507134537 | 11 | 308 | 0.0 | 17.7 | 0.00 | 0.00 | 0.00 | 62 | 1022.4 |
| 20260507134035 | 11 | 308 | 3.2 | 17.7 | 0.00 | 0.00 | 0.00 | 62 | 1022.4 |
| 20260507133534 | 11 | 308 | 3.2 | 14.5 | 0.00 | 0.00 | 0.00 | 62 | 1022.4 |
| 20260507133043 | 11 | 307 | 1.6 | 14.5 | 0.00 | 0.00 | 0.00 | 62 | 1022.3 |
| 20260507132536 | 11 | 309 | 4.8 | 17.7 | 0.00 | 0.00 | 0.00 | 63 | 1022.3 |
| 20260507132033 | 10 | 305 | 0.0 | 17.7 | 0.00 | 0.00 | 0.00 | 62 | 1022.3 |
| 20260507131542 | 10 | 309 | 1.6 | 17.7 | 0.00 | 0.00 | 0.00 | 62 | 1022.2 |
| 20260507131035 | 10 | 305 | 3.2 | 22.5 | 0.00 | 0.00 | 0.00 | 62 | 1022.2 |
| 20260507130532 | 10 | 307 | 3.2 | 22.5 | 0.00 | 0.00 | 0.00 | 62 | 1022.2 |
| 20260507130038 | 10 | 306 | 3.2 | 20.9 | 0.00 | 0.00 | 0.00 | 63 | 1022.1 |
| 20260507125531 | 10 | 306 | 3.2 | 20.9 | 0.00 | 0.00 | 0.00 | 63 | 1022.0 |
| 20260507125030 | 10 | 305 | 4.8 | 14.5 | 0.00 | 0.00 | 0.00 | 63 | 1022.0 |
| 20260507124533 | 10 | 306 | 3.2 | 16.1 | 0.00 | 0.00 | 0.00 | 63 | 1021.9 |
| 20260507124030 | 10 | 307 | 4.8 | 16.1 | 0.00 | 0.00 | 0.00 | 63 | 1021.8 |
| 20260507123531 | 10 | 304 | 4.8 | 17.7 | 0.00 | 0.00 | 0.00 | 63 | 1021.8 |
| 20260507123031 | 10 | 306 | 3.2 | 19.3 | 0.00 | 0.00 | 0.00 | 63 | 1021.8 |
| 20260507122529 | 10 | 306 | 3.2 | 19.3 | 0.00 | 0.00 | 0.00 | 63 | 1021.8 |
| 20260507122030 | 10 | 323 | 1.6 | 14.5 | 0.00 | 0.00 | 0.00 | 63 | 1021.7 |
| 20260507121528 | 10 | 292 | 0.0 | 20.9 | 0.00 | 0.00 | 0.00 | 63 | 1021.7 |
| 20260507121028 | 10 | 309 | 6.4 | 20.9 | 0.00 | 0.00 | 0.00 | 63 | 1021.7 |
| 20260507120526 | 10 | 309 | 3.2 | 20.9 | 0.00 | 0.00 | 0.00 | 63 | 1021.6 |
| 20260507120028 | 10 | 311 | 8.0 | 20.9 | 0.00 | 0.00 | 0.00 | 63 | 1021.7 |
| 20260507115526 | 10 | 311 | 1.6 | 12.9 | 0.00 | 0.00 | 0.00 | 63 | 1021.6 |
| 20260507115025 | 10 | 312 | 1.6 | 20.9 | 0.00 | 0.00 | 0.00 | 63 | 1021.6 |
| 20260507114641 | 10 | 314 | 6.4 | 20.9 | 0.00 | 0.00 | 0.00 | 63 | 1021.5 |
| 20260507114024 | 10 | 304 | 4.8 | 17.7 | 0.00 | 0.00 | 0.00 | 63 | 1021.5 |
| 20260507113525 | 10 | 304 | 6.4 | 20.9 | 0.00 | 0.00 | 0.00 | 63 | 1021.5 |
| 20260507113023 | 10 | 313 | 11.3 | 20.9 | 0.00 | 0.00 | 0.00 | 63 | 1021.5 |
| 20260507112527 | 10 | 307 | 6.4 | 22.5 | 0.00 | 0.00 | 0.00 | 63 | 1021.5 |
| 20260507112022 | 10 | 303 | 6.4 | 22.5 | 0.00 | 0.00 | 0.00 | 63 | 1021.5 |
| 20260507111524 | 10 | 304 | 8.0 | 22.5 | 0.00 | 0.00 | 0.00 | 63 | 1021.3 |
| 20260507111020 | 10 | 306 | 9.7 | 22.5 | 0.00 | 0.00 | 0.00 | 63 | 1021.3 |
| 20260507110520 | 10 | 306 | 8.0 | 20.9 | 0.00 | 0.00 | 0.00 | 64 | 1021.3 |
| 20260507110020 | 10 | 307 | 8.0 | 20.9 | 0.00 | 0.00 | 0.00 | 63 | 1021.3 |
| 20260507105519 | 10 | 308 | 8.0 | 20.9 | 0.00 | 0.00 | 0.00 | 64 | 1021.2 |
| 20260507105020 | 10 | 308 | 9.7 | 20.9 | 0.00 | 0.00 | 0.00 | 64 | 1021.3 |
| 20260507104517 | 10 | 312 | 4.8 | 17.7 | 0.00 | 0.00 | 0.00 | 64 | 1021.2 |
| 20260507104016 | 10 | 307 | 4.8 | 17.7 | 0.00 | 0.00 | 0.00 | 64 | 1021.1 |
| 20260507103515 | 10 | 307 | 3.2 | 22.5 | 0.00 | 0.00 | 0.00 | 63 | 1021.1 |
| 20260507103016 | 10 | 299 | 9.7 | 22.5 | 0.00 | 0.00 | 0.00 | 63 | 1021.0 |
| 20260507102513 | 10 | 311 | 8.0 | 20.9 | 0.00 | 0.00 | 0.00 | 63 | 1020.9 |
| 20260507102013 | 10 | 306 | 1.6 | 19.3 | 0.00 | 0.00 | 0.00 | 63 | 1020.9 |
| 20260507101515 | 10 | 312 | 4.8 | 19.3 | 0.00 | 0.00 | 0.00 | 63 | 1020.8 |
| 20260507101013 | 11 | 306 | 1.6 | 22.5 | 0.00 | 0.00 | 0.00 | 62 | 1020.8 |
| 20260507100509 | 11 | 317 | 6.4 | 22.5 | 0.00 | 0.00 | 0.00 | 62 | 1020.7 |
| 20260507100009 | 11 | 314 | 3.2 | 24.1 | 0.00 | 0.00 | 0.00 | 62 | 1020.7 |
| 20260507095508 | 11 | 329 | 8.0 | 24.1 | 0.00 | 0.00 | 0.00 | 62 | 1020.6 |
| 20260507095008 | 11 | 304 | 8.0 | 22.5 | 0.00 | 0.00 | 0.00 | 62 | 1020.5 |
| 20260507094507 | 11 | 307 | 6.4 | 19.3 | 0.00 | 0.00 | 0.00 | 62 | 1020.4 |
| 20260507094005 | 11 | 317 | 4.8 | 19.3 | 0.00 | 0.00 | 0.00 | 61 | 1020.3 |
| 20260507093506 | 11 | 311 | 8.0 | 19.3 | 0.00 | 0.00 | 0.00 | 61 | 1020.3 |
| 20260507093004 | 11 | 323 | 0.0 | 20.9 | 0.00 | 0.00 | 0.00 | 61 | 1020.2 |
| 20260507092504 | 11 | 313 | 9.7 | 33.8 | 0.00 | 0.00 | 0.00 | 60 | 1020.0 |
| 20260507092003 | 11 | 300 | 16.1 | 33.8 | 0.00 | 0.00 | 0.00 | 60 | 1019.9 |
| 20260507091503 | 11 | 303 | 8.0 | 22.5 | 0.00 | 0.00 | 0.00 | 59 | 1019.8 |
| 20260507091002 | 11 | 302 | 8.0 | 24.1 | 0.00 | 0.00 | 0.00 | 59 | 1019.9 |
| 20260507090502 | 11 | 324 | 12.9 | 27.4 | 0.00 | 0.00 | 0.00 | 59 | 1019.7 |
| 20260507090000 | 11 | 307 | 12.9 | 27.4 | 0.00 | 0.00 | 0.00 | 59 | 1019.8 |
| 20260507085700 | 11 | 286 | 11.3 | 24.1 | 0.00 | 0.00 | 0.00 | 59 | 1019.8 |
| 20260507085103 | 11 | 303 | 11.3 | 27.4 | 0.00 | 0.00 | 0.00 | 58 | 1019.6 |
| 20260507084602 | 11 | 287 | 12.9 | 27.4 | 0.00 | 0.00 | 0.00 | 58 | 1019.6 |
| 20260507084101 | 11 | 316 | 11.3 | 25.7 | 0.00 | 0.00 | 0.00 | 58 | 1019.5 |
| 20260507083557 | 11 | 282 | 11.3 | 25.7 | 0.00 | 0.00 | 0.00 | 58 | 1019.4 |
| 20260507083057 | 11 | 294 | 11.3 | 27.4 | 0.00 | 0.00 | 0.00 | 58 | 1019.5 |
| 20260507082555 | 11 | 317 | 11.3 | 25.7 | 0.00 | 0.00 | 0.00 | 58 | 1019.5 |
| 20260507082055 | 11 | 306 | 12.9 | 22.5 | 0.00 | 0.00 | 0.00 | 58 | 1019.7 |
| 20260507081555 | 11 | 309 | 6.4 | 20.9 | 0.00 | 0.00 | 0.00 | 58 | 1019.8 |
| 20260507081055 | 11 | 298 | 8.0 | 22.5 | 0.00 | 0.00 | 0.00 | 58 | 1019.5 |
| 20260507080556 | 11 | 310 | 9.7 | 30.6 | 0.00 | 0.00 | 0.00 | 57 | 1019.7 |
| 20260507080114 | 12 | 267 | 14.5 | 30.6 | 0.00 | 0.00 | 0.00 | 57 | 1019.9 |
| 20260507075552 | 12 | 293 | 9.7 | 24.1 | 0.00 | 0.00 | 0.00 | 57 | 1019.7 |
| 20260507075051 | 12 | 295 | 12.9 | 29.0 | 0.00 | 0.00 | 0.00 | 57 | 1019.6 |
| 20260507074551 | 12 | 296 | 11.3 | 29.0 | 0.00 | 0.00 | 0.00 | 57 | 1019.7 |
| 20260507074050 | 12 | 317 | 8.0 | 24.1 | 0.00 | 0.00 | 0.00 | 57 | 1019.8 |
| 20260507073549 | 12 | 306 | 11.3 | 20.9 | 0.00 | 0.00 | 0.00 | 57 | 1019.8 |
| 20260507073052 | 12 | 315 | 9.7 | 22.5 | 0.00 | 0.00 | 0.00 | 57 | 1020.0 |
| 20260507072550 | 12 | 302 | 6.4 | 24.1 | 0.00 | 0.00 | 0.00 | 57 | 1020.1 |
| 20260507072046 | 12 | 300 | 4.8 | 24.1 | 0.00 | 0.00 | 0.00 | 58 | 1019.9 |
| 20260507071546 | 12 | 311 | 6.4 | 22.5 | 0.00 | 0.00 | 0.00 | 58 | 1019.7 |
| 20260507071045 | 12 | 307 | 9.7 | 27.4 | 0.00 | 0.00 | 0.00 | 58 | 1019.4 |
| 20260507070543 | 12 | 306 | 12.9 | 27.4 | 0.00 | 0.00 | 0.00 | 57 | 1019.2 |
| 20260507070043 | 12 | 302 | 6.4 | 27.4 | 0.00 | 0.00 | 0.00 | 57 | 1019.1 |
| 20260507065544 | 12 | 291 | 9.7 | 25.7 | 0.00 | 0.00 | 0.00 | 56 | 1019.0 |
| 20260507065040 | 12 | 309 | 12.9 | 33.8 | 0.00 | 0.00 | 0.00 | 56 | 1018.9 |
| 20260507064540 | 12 | 304 | 14.5 | 33.8 | 0.00 | 0.00 | 0.00 | 55 | 1018.7 |
| 20260507064039 | 13 | 302 | 11.3 | 30.6 | 0.00 | 0.00 | 0.00 | 55 | 1018.7 |
| 20260507063538 | 13 | 305 | 16.1 | 30.6 | 0.00 | 0.00 | 0.00 | 55 | 1018.6 |
| 20260507063036 | 13 | 309 | 12.9 | 25.7 | 0.00 | 0.00 | 0.00 | 54 | 1018.3 |
| 20260507062535 | 13 | 306 | 8.0 | 30.6 | 0.00 | 0.00 | 0.00 | 54 | 1018.2 |
| 20260507062034 | 13 | 304 | 11.3 | 27.4 | 0.00 | 0.00 | 0.00 | 53 | 1018.2 |
| 20260507061533 | 13 | 292 | 9.7 | 29.0 | 0.00 | 0.00 | 0.00 | 53 | 1018.1 |
| 20260507061031 | 14 | 313 | 6.4 | 29.0 | 0.00 | 0.00 | 0.00 | 52 | 1017.9 |
| 20260507060529 | 14 | 298 | 9.7 | 27.4 | 0.00 | 0.00 | 0.00 | 51 | 1018.0 |
| 20260507060129 | 14 | 340 | 4.8 | 25.7 | 0.00 | 0.00 | 0.00 | 51 | 1018.1 |
| 20260507055527 | 15 | 310 | 8.0 | 25.7 | 0.00 | 0.00 | 0.00 | 50 | 1017.8 |
| 20260507055029 | 15 | 315 | 3.2 | 32.2 | 0.00 | 0.00 | 0.00 | 49 | 1017.6 |
| 20260507054534 | 15 | 304 | 12.9 | 32.2 | 0.00 | 0.00 | 0.00 | 47 | 1017.6 |
| 20260507054025 | 16 | 313 | 9.7 | 29.0 | 0.00 | 0.00 | 0.00 | 45 | 1017.5 |
| 20260507053524 | 16 | 303 | 11.3 | 29.0 | 0.00 | 0.00 | 0.00 | 43 | 1017.4 |
| 20260507053023 | 17 | 321 | 9.7 | 38.6 | 0.00 | 0.00 | 0.00 | 39 | 1017.2 |
| 20260507052522 | 18 | 318 | 14.5 | 38.6 | 0.00 | 0.00 | 0.00 | 32 | 1017.1 |
| 20260507052021 | 19 | 315 | 12.9 | 35.4 | 0.00 | 0.00 | 0.00 | 22 | 1016.9 |
| 20260507051520 | 19 | 225 | 1.6 | 8.0 | 0.00 | 0.00 | 0.00 | 23 | 1015.8 |
| 20260507051019 | 20 | 244 | 0.0 | 8.0 | 0.00 | 0.00 | 0.00 | 22 | 1015.7 |
| 20260507050518 | 20 | 244 | 0.0 | 12.9 | 0.00 | 0.00 | 0.00 | 22 | 1015.8 |
| 20260507050024 | 20 | 244 | 6.4 | 12.9 | 0.00 | 0.00 | 0.00 | 21 | 1015.7 |
| 20260507045518 | 20 | 240 | 3.2 | 12.9 | 0.00 | 0.00 | 0.00 | 21 | 1015.7 |
| 20260507045019 | 20 | 250 | 0.0 | 11.3 | 0.00 | 0.00 | 0.00 | 22 | 1015.7 |
| 20260507044521 | 20 | 252 | 1.6 | 11.3 | 0.00 | 0.00 | 0.00 | 22 | 1015.6 |
| 20260507044018 | 20 | 250 | 1.6 | 12.9 | 0.00 | 0.00 | 0.00 | 22 | 1015.6 |
| 20260507043518 | 20 | 250 | 0.0 | 12.9 | 0.00 | 0.00 | 0.00 | 21 | 1015.5 |
| 20260507043022 | 20 | 229 | 3.2 | 11.3 | 0.00 | 0.00 | 0.00 | 22 | 1015.5 |
| 20260507042518 | 20 | 248 | 0.0 | 11.3 | 0.00 | 0.00 | 0.00 | 21 | 1015.4 |
| 20260507042017 | 21 | 248 | 3.2 | 11.3 | 0.00 | 0.00 | 0.00 | 21 | 1015.3 |
| 20260507041518 | 21 | 248 | 0.0 | 11.3 | 0.00 | 0.00 | 0.00 | 21 | 1015.2 |
| 20260507041018 | 21 | 248 | 1.6 | 11.3 | 0.00 | 0.00 | 0.00 | 21 | 1015.2 |
| 20260507040517 | 21 | 232 | 3.2 | 12.9 | 0.00 | 0.00 | 0.00 | 21 | 1015.2 |
| 20260507040016 | 21 | 244 | 1.6 | 12.9 | 0.00 | 0.00 | 0.00 | 21 | 1015.3 |
| 20260507035516 | 21 | 242 | 0.0 | 11.3 | 0.00 | 0.00 | 0.00 | 21 | 1015.2 |
| 20260507035016 | 21 | 247 | 1.6 | 14.5 | 0.00 | 0.00 | 0.00 | 20 | 1015.1 |
| 20260507034516 | 21 | 229 | 3.2 | 14.5 | 0.00 | 0.00 | 0.00 | 20 | 1015.2 |
| 20260507034017 | 21 | 244 | 0.0 | 12.9 | 0.00 | 0.00 | 0.00 | 21 | 1015.0 |
| 20260507033516 | 21 | 244 | 0.0 | 12.9 | 0.00 | 0.00 | 0.00 | 21 | 1014.9 |
| 20260507033015 | 21 | 244 | 1.6 | 11.3 | 0.00 | 0.00 | 0.00 | 21 | 1014.9 |
| 20260507032516 | 22 | 224 | 3.2 | 11.3 | 0.00 | 0.00 | 0.00 | 20 | 1014.8 |
| 20260507032014 | 22 | 238 | 0.0 | 17.7 | 0.00 | 0.00 | 0.00 | 18 | 1014.7 |
| 20260507031515 | 22 | 236 | 6.4 | 22.5 | 0.00 | 0.00 | 0.00 | 18 | 1014.7 |
| 20260507031014 | 22 | 235 | 3.2 | 22.5 | 0.00 | 0.00 | 0.00 | 18 | 1014.7 |
| 20260507030514 | 22 | 219 | 3.2 | 16.1 | 0.00 | 0.00 | 0.00 | 18 | 1014.6 |
| 20260507030013 | 22 | 246 | 6.4 | 17.7 | 0.00 | 0.00 | 0.00 | 18 | 1014.6 |
| 20260507025513 | 22 | 243 | 4.8 | 17.7 | 0.00 | 0.00 | 0.00 | 18 | 1014.6 |
| 20260507025013 | 22 | 246 | 3.2 | 9.7 | 0.00 | 0.00 | 0.00 | 18 | 1014.5 |
| 20260507024514 | 22 | 222 | 3.2 | 14.5 | 0.00 | 0.00 | 0.00 | 18 | 1014.4 |
| 20260507024017 | 22 | 236 | 1.6 | 14.5 | 0.00 | 0.00 | 0.00 | 18 | 1014.3 |
| 20260507023513 | 22 | 232 | 3.2 | 17.7 | 0.00 | 0.00 | 0.00 | 18 | 1014.3 |
| 20260507023012 | 23 | 224 | 3.2 | 19.3 | 0.00 | 0.00 | 0.00 | 18 | 1014.2 |
| 20260507022513 | 23 | 243 | 6.4 | 19.3 | 0.00 | 0.00 | 0.00 | 18 | 1014.1 |
| 20260507022014 | 23 | 244 | 0.0 | 14.5 | 0.00 | 0.00 | 0.00 | 18 | 1014.1 |
| 20260507021511 | 23 | 246 | 3.2 | 11.3 | 0.00 | 0.00 | 0.00 | 17 | 1014.0 |
| 20260507021011 | 23 | 232 | 3.2 | 11.3 | 0.00 | 0.00 | 0.00 | 18 | 1014.0 |
| 20260507020512 | 23 | 248 | 0.0 | 8.0 | 0.00 | 0.00 | 0.00 | 17 | 1014.0 |
| 20260507020010 | 23 | 248 | 1.6 | 11.3 | 0.00 | 0.00 | 0.00 | 17 | 1013.9 |
| 20260507015510 | 23 | 223 | 4.8 | 12.9 | 0.00 | 0.00 | 0.00 | 16 | 1013.9 |
| 20260507015010 | 24 | 236 | 0.0 | 11.3 | 0.00 | 0.00 | 0.00 | 16 | 1013.8 |
| 20260507014510 | 24 | 235 | 3.2 | 16.1 | 0.00 | 0.00 | 0.00 | 16 | 1013.8 |
| 20260507014012 | 24 | 233 | 4.8 | 19.3 | 0.00 | 0.00 | 0.00 | 16 | 1013.7 |
| 20260507013509 | 24 | 242 | 4.8 | 16.1 | 0.00 | 0.00 | 0.00 | 15 | 1013.7 |
| 20260507013018 | 25 | 253 | 3.2 | 14.5 | 0.00 | 0.00 | 0.00 | 15 | 1013.6 |
| 20260507012509 | 25 | 241 | 4.8 | 24.1 | 0.00 | 0.00 | 0.00 | 15 | 1013.6 |
| 20260507012010 | 25 | 219 | 8.0 | 24.1 | 0.00 | 0.00 | 0.00 | 15 | 1013.5 |
| 20260507011512 | 25 | 246 | 3.2 | 17.7 | 0.00 | 0.00 | 0.00 | 15 | 1013.5 |
| 20260507011008 | 25 | 240 | 8.0 | 19.3 | 0.00 | 0.00 | 0.00 | 15 | 1013.4 |
| 20260507010508 | 25 | 238 | 4.8 | 14.5 | 0.00 | 0.00 | 0.00 | 14 | 1013.4 |
| 20260507010010 | 25 | 244 | 4.8 | 24.1 | 0.00 | 0.00 | 0.00 | 14 | 1013.4 |
| 20260507005508 | 25 | 244 | 9.7 | 24.1 | 0.00 | 0.00 | 0.00 | 13 | 1013.2 |
| 20260507005007 | 26 | 234 | 6.4 | 17.7 | 0.00 | 0.00 | 0.00 | 14 | 1013.2 |
| 20260507004508 | 26 | 237 | 0.0 | 14.5 | 0.00 | 0.00 | 0.00 | 14 | 1013.1 |
| 20260507004008 | 26 | 242 | 1.6 | 16.1 | 0.00 | 0.00 | 0.00 | 14 | 1013.0 |
| 20260507003508 | 26 | 253 | 4.8 | 17.7 | 0.00 | 0.00 | 0.00 | 15 | 1013.0 |
| 20260507003007 | 26 | 251 | 0.0 | 22.5 | 0.00 | 0.00 | 0.00 | 14 | 1012.9 |
| 20260507002510 | 26 | 259 | 8.0 | 22.5 | 0.00 | 0.00 | 0.00 | 14 | 1012.8 |
| 20260507002007 | 26 | 225 | 4.8 | 17.7 | 0.00 | 0.00 | 0.00 | 14 | 1012.8 |
| 20260507001509 | 26 | 236 | 8.0 | 17.7 | 0.00 | 0.00 | 0.00 | 13 | 1012.8 |
| 20260507001006 | 26 | 259 | 4.8 | 16.1 | 0.00 | 0.00 | 0.00 | 14 | 1012.8 |
| 20260507000506 | 26 | 229 | 4.8 | 22.5 | 0.00 | 0.00 | 0.00 | 14 | 1012.8 |
| 20260507000006 | 27 | 242 | 9.7 | 25.7 | 0.00 | 0.00 | 0.00 | 13 | 1012.7 |
| 20260506235505 | 27 | 227 | 4.8 | 19.3 | 0.00 | 0.00 | 0.00 | 13 | 1012.7 |
| 20260506235005 | 27 | 284 | 4.8 | 35.4 | 0.00 | 0.00 | 0.00 | 13 | 1012.6 |
| 20260506234505 | 27 | 254 | 11.3 | 35.4 | 0.00 | 0.00 | 0.00 | 12 | 1012.6 |
| 20260506234009 | 27 | 240 | 9.7 | 24.1 | 0.00 | 0.00 | 0.00 | 13 | 1012.5 |
| 20260506233505 | 27 | 258 | 4.8 | 24.1 | 0.00 | 0.00 | 0.00 | 13 | 1012.6 |
| 20260506233007 | 27 | 233 | 8.0 | 24.1 | 0.00 | 0.00 | 0.00 | 13 | 1012.5 |
| 20260506232504 | 27 | 239 | 4.8 | 24.1 | 0.00 | 0.00 | 0.00 | 13 | 1012.4 |
| 20260506232004 | 27 | 233 | 11.3 | 22.5 | 0.00 | 0.00 | 0.00 | 14 | 1012.3 |
| 20260506231505 | 27 | 223 | 9.7 | 22.5 | 0.00 | 0.00 | 0.00 | 13 | 1012.4 |
| 20260506231004 | 27 | 236 | 8.0 | 27.4 | 0.00 | 0.00 | 0.00 | 13 | 1012.4 |
| 20260506230507 | 28 | 247 | 11.3 | 27.4 | 0.00 | 0.00 | 0.00 | 14 | 1012.5 |
| 20260506230003 | 28 | 230 | 9.7 | 24.1 | 0.00 | 0.00 | 0.00 | 13 | 1012.4 |
| 20260506225503 | 27 | 242 | 8.0 | 19.3 | 0.00 | 0.00 | 0.00 | 14 | 1012.4 |
| 20260506225004 | 28 | 257 | 6.4 | 20.9 | 0.00 | 0.00 | 0.00 | 13 | 1012.3 |
| 20260506224503 | 27 | 260 | 11.3 | 24.1 | 0.00 | 0.00 | 0.00 | 13 | 1012.4 |
| 20260506224003 | 27 | 244 | 8.0 | 24.1 | 0.00 | 0.00 | 0.00 | 14 | 1012.3 |
| 20260506223502 | 27 | 236 | 4.8 | 27.4 | 0.00 | 0.00 | 0.00 | 14 | 1012.3 |
| 20260506223003 | 28 | 290 | 11.3 | 30.6 | 0.00 | 0.00 | 0.00 | 13 | 1012.3 |
| 20260506222502 | 28 | 306 | 8.0 | 25.7 | 0.00 | 0.00 | 0.00 | 14 | 1012.2 |
| 20260506222001 | 28 | 242 | 8.0 | 25.7 | 0.00 | 0.00 | 0.00 | 13 | 1012.3 |
| 20260506221502 | 28 | 211 | 6.4 | 22.5 | 0.00 | 0.00 | 0.00 | 14 | 1012.3 |
| 20260506221002 | 28 | 228 | 9.7 | 22.5 | 0.00 | 0.00 | 0.00 | 13 | 1012.4 |
| 20260506220502 | 28 | 250 | 4.8 | 24.1 | 0.00 | 0.00 | 0.00 | 13 | 1012.3 |
| 20260506220000 | 28 | 238 | 11.3 | 40.2 | 0.00 | 0.00 | 0.00 | 13 | 1012.3 |
| 20260506215501 | 28 | 205 | 17.7 | 40.2 | 0.00 | 0.00 | 0.00 | 12 | 1012.4 |
| 20260506215002 | 28 | 252 | 4.8 | 24.1 | 0.00 | 0.00 | 0.00 | 13 | 1012.4 |
| 20260506214503 | 28 | 227 | 6.4 | 27.4 | 0.00 | 0.00 | 0.00 | 13 | 1012.4 |
| 20260506214002 | 28 | 224 | 11.3 | 24.1 | 0.00 | 0.00 | 0.00 | 13 | 1012.5 |
| 20260506213501 | 28 | 228 | 6.4 | 32.2 | 0.00 | 0.00 | 0.00 | 12 | 1012.4 |
| 20260506213127 | 28 | 206 | 8.0 | 32.2 | 0.00 | 0.00 | 0.00 | 13 | 1012.6 |
| 20260506212602 | 28 | 233 | 16.1 | 30.6 | 0.00 | 0.00 | 0.00 | 13 | 1012.6 |
| 20260506212100 | 28 | 238 | 12.9 | 25.7 | 0.00 | 0.00 | 0.00 | 12 | 1012.6 |
| 20260506211600 | 28 | 275 | 12.9 | 27.4 | 0.00 | 0.00 | 0.00 | 12 | 1012.5 |
| 20260506211059 | 28 | 284 | 8.0 | 24.1 | 0.00 | 0.00 | 0.00 | 13 | 1012.7 |
| 20260506210600 | 28 | 229 | 12.9 | 25.7 | 0.00 | 0.00 | 0.00 | 13 | 1012.7 |
| 20260506210058 | 28 | 229 | 9.7 | 40.2 | 0.00 | 0.00 | 0.00 | 12 | 1012.7 |
| 20260506205557 | 28 | 220 | 6.4 | 25.7 | 0.00 | 0.00 | 0.00 | 12 | 1012.8 |
| 20260506205057 | 28 | 259 | 8.0 | 25.7 | 0.00 | 0.00 | 0.00 | 12 | 1012.8 |
| 20260506204557 | 28 | 204 | 9.7 | 32.2 | 0.00 | 0.00 | 0.00 | 13 | 1012.9 |
| 20260506204056 | 28 | 246 | 9.7 | 32.2 | 0.00 | 0.00 | 0.00 | 13 | 1012.9 |
| 20260506203556 | 28 | 265 | 8.0 | 30.6 | 0.00 | 0.00 | 0.00 | 13 | 1012.9 |
| 20260506203058 | 28 | 261 | 12.9 | 30.6 | 0.00 | 0.00 | 0.00 | 12 | 1012.9 |
| 20260506202556 | 28 | 245 | 11.3 | 37.0 | 0.00 | 0.00 | 0.00 | 12 | 1013.0 |
| 20260506202056 | 28 | 232 | 14.5 | 41.8 | 0.00 | 0.00 | 0.00 | 12 | 1013.0 |
| 20260506201556 | 28 | 227 | 17.7 | 41.8 | 0.00 | 0.00 | 0.00 | 12 | 1013.0 |
| 20260506201055 | 27 | 232 | 8.0 | 27.4 | 0.00 | 0.00 | 0.00 | 11 | 1013.0 |
| 20260506200555 | 28 | 192 | 8.0 | 29.0 | 0.00 | 0.00 | 0.00 | 11 | 1013.2 |
| 20260506200055 | 28 | 234 | 9.7 | 32.2 | 0.00 | 0.00 | 0.00 | 12 | 1013.2 |
| 20260506195554 | 28 | 202 | 11.3 | 32.2 | 0.00 | 0.00 | 0.00 | 11 | 1013.2 |
| 20260506195058 | 27 | 257 | 8.0 | 27.4 | 0.00 | 0.00 | 0.00 | 12 | 1013.3 |
| 20260506194557 | 27 | 221 | 8.0 | 27.4 | 0.00 | 0.00 | 0.00 | 14 | 1013.3 |
| 20260506194055 | 27 | 226 | 8.0 | 19.3 | 0.00 | 0.00 | 0.00 | 13 | 1013.4 |
| 20260506193554 | 28 | 265 | 4.8 | 27.4 | 0.00 | 0.00 | 0.00 | 15 | 1013.4 |
| 20260506193053 | 27 | 241 | 4.8 | 27.4 | 0.00 | 0.00 | 0.00 | 14 | 1013.4 |
| 20260506192552 | 27 | 218 | 9.7 | 19.3 | 0.00 | 0.00 | 0.00 | 14 | 1013.4 |
| 20260506192054 | 27 | 255 | 8.0 | 25.7 | 0.00 | 0.00 | 0.00 | 15 | 1013.6 |
| 20260506191553 | 27 | 206 | 6.4 | 25.7 | 0.00 | 0.00 | 0.00 | 15 | 1013.5 |
| 20260506191052 | 27 | 192 | 4.8 | 24.1 | 0.00 | 0.00 | 0.00 | 16 | 1013.5 |
| 20260506190552 | 27 | 188 | 9.7 | 35.4 | 0.00 | 0.00 | 0.00 | 15 | 1013.6 |
| 20260506190052 | 27 | 167 | 12.9 | 35.4 | 0.00 | 0.00 | 0.00 | 15 | 1013.7 |
| 20260506185550 | 27 | 277 | 6.4 | 19.3 | 0.00 | 0.00 | 0.00 | 16 | 1013.8 |
| 20260506185052 | 27 | 272 | 6.4 | 20.9 | 0.00 | 0.00 | 0.00 | 17 | 1013.9 |
| 20260506184553 | 27 | 217 | 4.8 | 20.9 | 0.00 | 0.00 | 0.00 | 17 | 1013.8 |
| 20260506184049 | 27 | 254 | 8.0 | 32.2 | 0.00 | 0.00 | 0.00 | 19 | 1013.9 |
| 20260506183549 | 26 | 281 | 8.0 | 32.2 | 0.00 | 0.00 | 0.00 | 19 | 1014.0 |
| 20260506183056 | 26 | 289 | 11.3 | 32.2 | 0.00 | 0.00 | 0.00 | 18 | 1014.0 |
| 20260506182548 | 26 | 321 | 12.9 | 32.2 | 0.00 | 0.00 | 0.00 | 16 | 1014.1 |
| 20260506182048 | 26 | 202 | 9.7 | 30.6 | 0.00 | 0.00 | 0.00 | 17 | 1014.2 |
| 20260506181612 | 27 | 250 | 9.7 | 27.4 | 0.00 | 0.00 | 0.00 | 19 | 1014.2 |
| 20260506181046 | 26 | 238 | 8.0 | 25.7 | 0.00 | 0.00 | 0.00 | 18 | 1014.3 |
| 20260506180545 | 26 | 225 | 1.6 | 25.7 | 0.00 | 0.00 | 0.00 | 19 | 1014.4 |
| 20260506180045 | 26 | 250 | 6.4 | 25.7 | 0.00 | 0.00 | 0.00 | 21 | 1014.6 |
| 20260506175544 | 26 | 236 | 4.8 | 19.3 | 0.00 | 0.00 | 0.00 | 21 | 1014.6 |
| 20260506175046 | 25 | 234 | 8.0 | 19.3 | 0.00 | 0.00 | 0.00 | 25 | 1014.6 |
| 20260506174542 | 25 | 217 | 0.0 | 8.0 | 0.00 | 0.00 | 0.00 | 29 | 1014.7 |
| 20260506174040 | 23 | 225 | 0.0 | 9.7 | 0.00 | 0.00 | 0.00 | 32 | 1014.9 |
| 20260506173641 | 24 | 223 | 0.0 | 9.7 | 0.00 | 0.00 | 0.00 | 32 | 1015.0 |
| 20260506173054 | 24 | 243 | 0.0 | 9.7 | 0.00 | 0.00 | 0.00 | 32 | 1015.0 |
| 20260506172538 | 23 | 244 | 1.6 | 9.7 | 0.00 | 0.00 | 0.00 | 34 | 1014.9 |